Theta_e
302 303 303 304 304 305 306 309 310 310 309 308 307 308 308 309 308 312 315 314 313 311 313 314 315 316 317 321 325 329 331 332 332 332 332 332 339 343 342 344 348 349 350 348 347
303 303 303 303 304 304 306 309 310 310 309 308 307 308 309 308 314 314 314 311 310 311 313 316 317 317 319 320 323 329 331 331 331 330 331 337 341 339 344 347 349 351 346 343 339
305 304 304 304 304 304 307 309 309 310 309 308 307 308 308 307 317 316 317 311 310 311 314 315 317 318 318 320 321 326 330 331 330 329 327 332 337 344 348 355 352 353 349 346 345
305 304 304 304 304 304 308 308 309 310 309 308 307 308 307 317 317 318 314 314 311 315 315 316 317 317 318 318 320 321 325 329 330 328 330 333 335 339 341 343 340 342 341 340 341
304 305 304 303 304 305 308 308 309 310 309 307 308 307 312 317 316 316 315 315 313 315 317 318 317 318 318 318 319 319 322 324 326 327 327 329 333 334 334 333 332 331 331 332 332
304 304 304 304 303 307 308 308 310 309 308 307 308 306 315 315 311 320 320 317 313 315 316 317 317 318 318 318 318 319 321 323 324 326 325 326 326 328 328 328 328 326 325 324 322
305 304 304 303 305 308 308 308 310 308 307 308 308 314 317 316 319 319 314 315 315 317 318 317 316 318 319 318 319 320 322 324 323 326 327 327 325 326 325 326 326 322 319 317 316
306 305 304 303 307 309 309 309 308 307 308 308 309 319 318 314 315 317 317 316 316 318 319 318 317 321 321 320 320 320 320 323 323 324 325 327 327 322 322 323 321 319 317 315 313
306 305 304 306 309 309 308 307 308 308 309 309 318 318 318 314 316 317 321 324 324 323 320 319 320 321 320 320 320 320 320 321 325 324 325 327 324 319 319 318 317 315 314 313 312
306 306 303 307 309 307 308 309 309 311 313 316 318 321 319 321 319 319 319 322 323 325 324 324 321 320 320 320 320 320 322 326 327 324 325 324 320 317 316 316 314 313 312 312 311
307 306 304 308 307 309 311 317 324 326 319 321 319 317 320 322 321 320 320 321 321 322 321 321 320 319 320 320 320 320 321 326 323 322 323 322 320 317 315 314 313 312 311 311 310
307 307 304 307 308 311 316 323 326 322 325 325 324 322 320 319 323 320 320 321 321 320 321 320 319 320 320 319 319 321 325 326 324 322 322 320 318 315 314 312 311 311 310 310 309
307 307 305 307 309 312 320 321 318 320 325 323 323 324 323 322 323 320 322 321 321 321 321 320 320 320 320 320 319 322 324 326 326 323 322 322 321 317 313 312 311 310 309 309 308
308 307 305 308 314 317 319 317 317 317 326 323 324 324 323 324 324 323 320 321 321 321 321 321 320 320 324 323 324 322 322 326 325 327 328 326 331 323 317 314 312 310 309 308 307
308 307 306 312 317 319 322 317 317 320 322 326 327 324 324 324 323 321 319 321 322 322 322 321 320 322 325 325 325 325 324 325 325 327 328 327 329 328 320 318 313 309 308 307 307
309 307 306 310 317 321 316 316 321 327 324 328 326 324 324 324 323 322 320 321 322 322 322 323 323 324 325 324 324 323 324 325 325 327 330 329 329 326 323 320 313 309 307 306 306
309 307 306 311 319 316 316 322 326 324 327 327 326 325 324 324 323 323 323 323 322 323 324 323 323 323 321 324 324 325 328 329 329 329 328 329 328 326 316 312 309 307 306 305 305
309 309 309 312 315 316 319 325 327 321 328 324 324 325 325 325 324 323 323 323 322 324 326 325 326 323 320 323 327 326 329 325 327 326 327 327 328 325 313 309 307 306 305 304 305
311 315 314 312 310 312 324 326 323 326 323 324 326 327 326 325 325 324 324 324 324 324 328 327 325 320 318 320 323 328 328 328 330 330 330 330 320 316 312 310 308 306 305 304 304
314 317 318 315 312 317 325 322 322 321 320 322 327 327 328 326 325 325 326 322 321 318 320 327 328 322 320 318 320 324 325 329 329 330 330 330 330 327 316 313 308 306 305 304 304
318 323 318 314 318 324 324 323 321 318 319 322 324 326 327 327 325 326 326 317 314 317 319 323 328 325 319 322 324 323 326 326 328 330 331 329 328 318 317 313 309 305 304 304 304
321 323 318 317 322 322 322 321 313 318 318 320 321 323 324 323 325 325 324 319 312 315 321 323 328 329 325 317 317 318 323 324 330 330 329 331 325 312 311 308 306 304 304 304 303
324 323 319 319 322 321 322 318 317 318 318 319 320 320 321 323 325 320 317 311 313 315 321 322 325 329 324 320 318 320 319 320 324 326 328 328 323 311 308 306 304 305 304 304 304
324 324 321 321 320 325 322 321 319 316 316 316 318 318 319 320 319 322 318 314 315 318 315 318 323 327 328 325 322 321 317 317 322 327 325 324 316 311 307 306 305 304 304 304 304
321 322 319 322 320 321 320 319 318 318 316 316 318 316 318 320 319 319 316 315 317 317 315 321 324 318 315 315 315 315 315 316 319 320 323 320 317 312 307 306 305 304 304 304 304
322 321 317 318 317 319 318 318 317 315 315 316 316 314 315 318 317 318 315 317 317 316 317 317 320 317 314 312 312 312 311 312 313 314 314 314 311 306 305 304 304 304 304 303 303
314 315 319 315 318 318 316 314 314 315 314 313 314 315 316 314 314 314 314 315 316 317 318 319 318 319 318 312 313 315 310 310 309 310 311 312 309 306 305 305 305 304 303 303 303
Wind_Speed
8 8 8 7 7 7 6 6 6 6 7 6 6 7 8 8 9 7 11 7 5 10 9 8 7 8 10 11 9 7 7 8 5 3 7 23 19 11 1 19 21 15 16 16 16
8 7 7 7 6 6 5 5 5 5 6 6 6 7 7 8 8 15 11 8 10 15 12 12 10 11 12 13 8 11 10 9 4 2 11 23 23 10 19 16 19 19 18 18 17
8 7 7 7 6 6 4 4 4 5 5 5 5 5 5 5 8 3 4 9 9 13 14 10 7 11 12 11 12 15 12 6 5 9 15 7 24 26 17 21 19 15 16 16 19
9 8 7 6 6 5 4 4 4 4 4 4 4 4 3 4 1 4 4 7 13 10 12 12 11 12 12 13 10 12 14 8 1 15 18 15 23 29 25 20 18 19 19 19 20
9 8 6 5 5 4 3 3 3 3 4 4 4 2 2 6 3 4 4 13 18 11 12 11 12 12 12 11 10 14 8 6 12 20 19 21 25 23 22 19 20 22 22 20 21
11 8 6 4 3 3 3 3 3 4 4 4 3 2 5 7 2 1 9 17 14 14 10 9 7 7 7 8 14 13 10 10 15 13 12 23 21 10 16 16 19 20 21 20 24
10 8 5 3 2 2 2 3 4 4 4 4 4 1 6 5 2 7 12 7 14 7 8 8 6 8 7 8 4 9 16 16 5 11 17 12 21 14 11 13 17 18 18 19 23
8 7 4 2 1 2 3 4 5 5 5 4 3 3 5 3 6 6 9 7 9 5 3 7 6 3 7 3 8 13 14 13 12 7 2 10 9 10 9 11 14 15 15 17 21
9 6 2 1 2 5 5 5 5 5 4 4 2 5 2 4 6 12 13 9 10 7 6 6 8 4 7 12 12 10 14 18 7 5 3 3 13 9 8 11 13 13 14 15 17
9 5 1 3 4 7 7 6 5 5 2 2 4 5 6 4 8 9 12 9 8 10 8 7 8 10 11 12 13 15 9 4 5 11 16 19 17 11 9 11 12 13 14 15 16
9 3 2 4 7 10 9 3 5 5 7 6 2 4 2 2 7 11 14 14 9 11 11 11 10 13 15 14 9 6 9 12 14 11 11 16 15 12 10 10 12 13 13 14 14
9 3 3 7 9 10 4 4 4 4 6 11 11 8 9 4 7 11 13 13 11 13 7 8 14 9 4 5 10 9 12 16 10 7 9 15 14 11 10 11 11 11 12 13 13
9 4 5 9 8 5 5 3 1 4 6 5 5 6 6 11 9 14 18 17 14 13 14 14 1 7 9 10 12 14 18 18 12 12 14 18 11 11 10 10 10 11 11 12 13
9 4 7 11 5 5 4 3 5 5 4 8 6 6 8 7 8 3 17 14 9 14 11 11 9 9 10 12 13 15 17 16 22 16 8 23 6 11 11 9 9 10 11 12 12
8 3 10 13 1 4 3 5 2 5 4 4 7 3 7 12 12 6 9 11 12 9 7 9 13 14 11 12 18 14 17 21 23 17 6 21 8 14 11 9 6 8 10 11 12
5 2 10 6 3 3 6 2 5 6 2 5 6 10 12 11 6 7 11 8 4 8 11 9 0 6 10 4 10 3 15 14 11 11 11 16 14 12 12 10 6 6 8 9 10
3 1 14 6 1 2 1 4 5 5 2 3 2 8 15 10 7 9 13 14 10 11 14 12 14 5 4 6 9 13 20 8 9 10 11 9 10 11 13 8 5 5 6 8 9
1 1 7 8 3 4 5 6 5 3 2 3 2 6 14 9 8 9 10 11 9 10 3 9 10 11 2 7 8 15 22 12 14 14 13 8 8 8 12 8 6 5 4 6 8
3 2 2 3 7 5 5 6 2 4 5 8 7 9 11 8 6 12 14 13 5 7 7 5 4 5 2 2 5 15 16 13 14 7 9 10 6 7 11 9 5 5 4 6 7
0 3 4 3 5 7 6 5 1 3 6 6 6 3 8 13 11 11 12 2 5 3 3 0 6 4 4 4 3 9 2 9 10 19 21 11 9 5 18 13 7 4 4 5 5
2 3 5 4 2 5 6 1 1 2 5 4 4 5 3 4 9 11 5 6 1 3 4 3 5 6 5 4 6 5 10 8 7 6 12 16 6 7 14 11 8 6 4 4 5
2 2 2 3 6 2 5 1 1 1 2 2 4 4 3 4 3 3 3 4 2 2 3 2 4 9 1 3 3 3 5 7 8 13 8 8 4 7 11 10 8 7 4 4 5
0 3 2 3 4 5 3 3 4 2 4 4 1 4 4 3 4 2 0 2 2 2 1 3 5 9 6 6 6 7 1 3 5 5 16 10 4 9 10 9 7 5 4 2 4
2 3 3 1 3 5 1 1 2 7 4 3 4 2 3 4 2 3 2 1 1 2 4 3 2 6 11 6 4 5 6 3 6 8 11 4 13 13 11 10 8 5 3 4 5
3 3 4 2 5 5 1 4 2 4 6 8 3 7 5 4 5 5 3 3 2 4 1 3 5 2 4 2 2 3 2 5 8 4 6 9 10 14 11 9 7 5 3 4 5
3 1 4 5 3 6 5 8 7 5 8 5 6 8 6 5 6 7 7 4 3 4 3 2 3 9 4 5 7 10 8 8 7 9 9 13 14 11 9 7 5 4 3 4 6
4 2 1 5 5 2 7 7 9 3 3 5 7 7 5 7 6 4 2 1 1 3 4 5 8 6 5 9 10 6 5 4 5 4 10 5 10 9 8 5 4 3 2 5 6
Wind_Direction
305 296 292 290 293 294 281 267 264 260 254 259 269 275 279 288 291 267 252 245 212 201 176 180 185 192 207 222 233 246 245 229 137 238 50 39 20 56 52 68 75 68 76 96 109
314 304 296 294 290 290 281 264 258 261 251 248 255 267 281 302 281 261 249 231 222 191 191 193 184 188 203 217 205 223 228 221 89 4 8 66 36 17 75 55 66 75 89 102 103
321 310 304 301 297 293 280 267 252 249 242 240 253 267 290 322 271 136 166 197 194 185 215 224 195 204 213 212 203 216 238 170 206 23 42 61 59 36 73 58 51 74 91 93 83
320 316 308 303 301 296 287 268 241 236 231 234 247 261 288 265 278 112 268 206 172 169 176 186 198 201 212 205 198 234 229 248 78 62 73 80 84 66 63 66 60 60 66 73 70
322 317 309 303 302 297 283 255 226 217 207 213 223 242 288 228 256 348 321 175 171 175 183 190 202 213 213 202 187 224 183 202 95 96 89 81 73 77 66 64 67 68 61 57 61
332 319 309 309 297 290 277 231 203 194 189 198 197 185 252 242 38 99 129 142 170 185 186 206 219 222 211 195 207 189 83 94 142 102 104 86 66 80 60 73 72 66 61 55 53
340 326 310 300 287 275 218 186 176 171 173 177 176 199 251 278 108 142 145 157 168 187 189 191 222 214 166 170 163 170 138 120 60 170 146 126 56 63 65 66 68 64 63 58 50
333 330 321 280 217 149 149 154 151 154 160 167 171 237 263 181 197 174 177 160 182 175 142 173 181 228 244 100 178 186 208 191 49 200 47 222 90 61 55 70 66 59 58 56 53
339 333 304 175 159 136 135 136 139 140 148 149 208 249 194 172 209 204 188 169 157 163 120 141 199 218 182 200 191 201 202 209 119 24 124 212 119 87 74 76 70 62 53 49 46
341 331 269 153 149 136 129 130 133 120 140 211 248 245 213 156 156 170 187 183 171 168 168 201 199 202 217 212 212 194 187 52 103 66 97 104 110 100 84 81 72 63 55 46 42
342 334 212 148 146 144 128 137 200 183 208 254 83 309 99 123 168 187 177 186 172 195 202 204 216 215 208 218 285 301 222 134 122 119 84 110 114 104 92 80 70 61 52 48 42
352 334 155 148 157 162 163 264 31 8 287 220 249 256 257 256 182 172 182 196 202 209 201 190 229 226 249 229 222 204 157 143 128 141 130 132 113 108 96 81 67 60 53 43 37
354 349 146 157 162 177 227 252 103 323 263 166 201 234 204 198 200 170 191 204 204 212 210 238 194 154 199 188 204 197 192 175 149 145 141 138 130 135 117 98 82 62 54 46 36
352 345 163 154 160 174 221 200 261 274 264 138 190 181 177 217 189 160 204 193 206 216 212 234 191 216 209 204 213 199 220 173 154 163 184 215 158 175 156 119 78 60 46 37 32
345 338 174 165 11 217 110 290 237 195 246 127 137 114 165 209 127 160 183 209 213 200 216 202 205 208 228 232 198 237 190 180 182 210 164 193 259 135 177 164 94 61 49 39 31
330 312 180 198 245 261 310 195 202 230 192 142 139 176 179 200 165 132 186 229 299 206 220 270 14 253 262 82 231 261 162 168 200 225 234 186 222 155 176 173 130 73 51 38 29
317 265 174 190 69 329 273 205 241 254 111 120 153 189 200 186 173 202 184 197 206 206 214 206 226 201 249 157 156 163 158 168 204 211 240 148 202 80 120 124 103 77 51 34 24
50 238 210 205 255 331 227 236 253 47 357 22 303 246 217 183 196 187 201 193 221 256 263 228 185 205 150 259 209 200 202 240 214 220 212 162 217 133 136 135 115 90 60 36 25
70 131 191 213 239 253 245 235 351 15 356 336 292 232 201 196 235 203 217 229 176 214 261 208 206 146 119 14 258 198 225 271 287 257 281 138 109 148 165 160 133 89 64 46 29
236 191 101 298 187 226 244 268 290 349 333 321 304 338 254 201 213 209 191 151 179 219 255 198 257 203 137 240 181 260 359 228 223 256 250 197 175 118 180 172 150 128 80 56 32
229 198 31 121 218 226 242 230 292 79 348 308 321 299 342 313 271 235 246 111 214 166 224 272 249 145 196 231 313 204 221 232 293 305 274 264 109 99 163 152 149 120 94 59 38
280 177 83 328 206 257 250 15 352 319 345 289 285 310 317 334 302 272 281 24 14 292 225 130 272 251 348 84 5 293 294 286 263 232 242 288 87 126 130 138 140 130 98 53 23
87 95 86 296 233 200 132 126 40 342 28 348 313 354 347 324 282 289 30 58 9 244 284 166 208 216 201 214 208 241 207 277 265 271 271 282 111 152 139 141 134 125 106 82 16
247 153 123 97 29 326 243 43 155 38 66 349 342 276 281 262 266 292 221 82 54 87 39 276 213 272 282 7 351 181 196 235 262 268 264 242 130 163 161 157 147 131 89 40 27
349 62 356 97 56 46 42 2 360 13 4 17 163 20 332 284 270 260 270 176 146 142 74 272 225 175 51 61 99 116 198 210 228 328 276 101 142 155 150 146 127 103 69 37 37
1 14 79 69 27 76 40 41 25 34 3 29 11 357 354 321 335 307 324 250 261 173 184 197 166 146 91 110 119 101 79 85 94 88 93 111 113 123 120 122 127 101 55 28 23
49 68 4 15 55 76 40 35 35 345 80 30 338 312 359 28 19 358 328 345 342 251 185 185 164 200 160 153 146 133 65 92 103 118 133 153 109 141 142 136 120 91 50 22 9